• In Hungary
  • List of Countries
  • For 7 days
  • Water Temperature
  • Satellite Maps
  • Weather Map
  • News
  • Weather Widgets
  • user-avatar
    Login

    Hourly Weather Bolshoe Redanovo

    Today, 24 October, Wednesday

    Time Temperature Precipitation Wind Pressure Humidity
    00:00 +3°C° 0.3 mm 4 mps 725 mmHg 81%
    01:00 +3°C° 0.3 mm 4 mps 724 mmHg 82%
    02:00 +3°C° 0.3 mm 4 mps 723 mmHg 83%
    03:00 +3°C° 0.4 mm 4 mps 722 mmHg 83%
    04:00 +3°C° 0.4 mm 4 mps 722 mmHg 84%
    05:00 +3°C° 0.4 mm 4 mps 721 mmHg 85%
    06:00 +3°C° 0.3 mm 4 mps 721 mmHg 85%
    07:00 +3°C° 0.3 mm 3 mps 720 mmHg 86%
    08:00 +3°C° 0.3 mm 3 mps 720 mmHg 86%
    09:00 +3°C° 0.3 mm 3 mps 720 mmHg 85%
    10:00 +4°C° 0.3 mm 3 mps 720 mmHg 85%
    11:00 +5°C° 0.3 mm 2 mps 720 mmHg 84%
    12:00 +5°C° 0.2 mm 2 mps 720 mmHg 84%
    13:00 +6°C° 0.2 mm 2 mps 720 mmHg 84%
    14:00 +7°C° 0.2 mm 1 mps 720 mmHg 84%
    15:00 +6°C° 0.1 mm 1 mps 721 mmHg 86%
    16:00 +6°C° 0.1 mm 1 mps 721 mmHg 89%
    17:00 +6°C° 0.1 mm 1 mps 721 mmHg 91%
    18:00 +5°C° 0.1 mm 2 mps 721 mmHg 92%
    19:00 +4°C° 0.1 mm 2 mps 722 mmHg 93%
    20:00 +4°C° 0.1 mm 2 mps 722 mmHg 93%
    21:00 +4°C° 0.1 mm 2 mps 722 mmHg 92%
    22:00 +3°C° 0.1 mm 3 mps 723 mmHg 91%
    23:00 +3°C° 0.1 mm 3 mps 723 mmHg 91%

    Tomorrow, 25 October, Thursday

    Time Temperature Precipitation Wind Pressure Humidity
    00:00 +3°C° 0.1 mm 3 mps 723 mmHg 89%
    01:00 +3°C° 0.1 mm 3 mps 724 mmHg 88%
    02:00 +3°C° 0.1 mm 4 mps 724 mmHg 87%
    03:00 +3°C° 0.1 mm 4 mps 724 mmHg 86%
    04:00 +1°C° 0.1 mm 4 mps 724 mmHg 86%
    05:00 +1°C° 0.1 mm 4 mps 725 mmHg 85%
    06:00 +1°C° 0.1 mm 4 mps 725 mmHg 84%
    07:00 +1°C° 0.1 mm 4 mps 725 mmHg 84%
    08:00 +1°C° 0.1 mm 4 mps 726 mmHg 83%
    09:00 +1°C° 0 mm 4 mps 726 mmHg 80%
    10:00 +1°C° 0 mm 4 mps 726 mmHg 77%
    11:00 +3°C° 0 mm 4 mps 727 mmHg 74%
    12:00 +3°C° 0 mm 4 mps 727 mmHg 73%
    13:00 +3°C° 0 mm 4 mps 727 mmHg 72%
    14:00 +3°C° 0 mm 4 mps 727 mmHg 70%
    15:00 +3°C° 0 mm 4 mps 727 mmHg 73%
    16:00 +2°C° 0 mm 3 mps 727 mmHg 76%
    17:00 +2°C° 0 mm 3 mps 727 mmHg 78%
    18:00 +2°C° 0 mm 3 mps 727 mmHg 80%
    19:00 +3°C° 0 mm 2 mps 727 mmHg 82%
    20:00 +3°C° 0 mm 2 mps 727 mmHg 84%
    21:00 +2°C° 0 mm 2 mps 727 mmHg 87%
    22:00 +2°C° 0 mm 2 mps 727 mmHg 89%
    23:00 +1°C° 0 mm 2 mps 727 mmHg 92%

    Day after tomorrow, 26 October, Friday

    Time Temperature Precipitation Wind Pressure Humidity
    00:00 +1°C° 0 mm 2 mps 727 mmHg 93%
    01:00 -1°C° 0 mm 2 mps 728 mmHg 95%
    02:00 -1°C° 0 mm 2 mps 728 mmHg 96%
    03:00 -1°C° 0.1 mm 2 mps 728 mmHg 95%
    04:00 +1°C° 0.1 mm 2 mps 728 mmHg 94%
    05:00 +1°C° 0.1 mm 2 mps 728 mmHg 93%
    06:00 0°C° 0.4 mm 3 mps 728 mmHg 91%
    07:00 +1°C° 0.4 mm 3 mps 729 mmHg 90%
    08:00 +1°C° 0.4 mm 3 mps 729 mmHg 88%
    09:00 +2°C° 0.2 mm 3 mps 729 mmHg 86%
    10:00 +1°C° 0.2 mm 4 mps 729 mmHg 84%
    11:00 +3°C° 0.2 mm 4 mps 729 mmHg 82%
    12:00 +3°C° 0 mm 4 mps 730 mmHg 80%
    13:00 +3°C° 0 mm 4 mps 730 mmHg 78%
    14:00 +3°C° 0 mm 4 mps 730 mmHg 75%
    15:00 +3°C° 0 mm 4 mps 731 mmHg 77%
    16:00 +3°C° 0 mm 3 mps 731 mmHg 80%
    17:00 +2°C° 0 mm 3 mps 732 mmHg 82%
    18:00 +2°C° 0 mm 3 mps 732 mmHg 85%
    19:00 +1°C° 0 mm 3 mps 732 mmHg 87%
    20:00 +1°C° 0 mm 2 mps 732 mmHg 90%
    21:00 +1°C° 0 mm 2 mps 732 mmHg 91%
    22:00 0°C° 0 mm 3 mps 733 mmHg 91%
    23:00 0°C° 0 mm 3 mps 733 mmHg 91%

    27 October, Saturday

    Time Temperature Precipitation Wind Pressure Humidity
    00:00 0°C° 0 mm 3 mps 732 mmHg 92%
    01:00 0°C° 0 mm 3 mps 732 mmHg 93%
    02:00 0°C° 0 mm 3 mps 732 mmHg 93%
    03:00 0°C° 0.4 mm 4 mps 731 mmHg 91%
    04:00 +1°C° 0.4 mm 4 mps 730 mmHg 90%
    05:00 +1°C° 0.4 mm 5 mps 729 mmHg 88%
    06:00 +2°C° 1.3 mm 5 mps 728 mmHg 88%
    07:00 +2°C° 1.3 mm 5 mps 727 mmHg 89%
    08:00 +3°C° 1.3 mm 5 mps 726 mmHg 89%
    09:00 +3°C° 0.8 mm 5 mps 725 mmHg 88%
    10:00 +4°C° 0.8 mm 6 mps 724 mmHg 88%
    11:00 +4°C° 0.8 mm 6 mps 724 mmHg 87%
    12:00 +5°C° 0.6 mm 6 mps 724 mmHg 84%
    13:00 +5°C° 0.6 mm 6 mps 723 mmHg 80%
    14:00 +5°C° 0.6 mm 6 mps 723 mmHg 76%
    15:00 +4°C° 0.4 mm 7 mps 724 mmHg 77%
    16:00 +2°C° 0.4 mm 8 mps 725 mmHg 77%
    17:00 +1°C° 0.4 mm 8 mps 726 mmHg 77%
    18:00 +1°C° 0.2 mm 8 mps 727 mmHg 78%
    19:00 0°C° 0.2 mm 8 mps 728 mmHg 79%
    20:00 -1°C° 0.2 mm 8 mps 730 mmHg 79%
    21:00 -1°C° 0 mm 7 mps 731 mmHg 80%
    22:00 -1°C° 0 mm 6 mps 733 mmHg 80%
    23:00 -2°C° 0 mm 6 mps 734 mmHg 80%

    28 October, Sunday

    Time Temperature Precipitation Wind Pressure Humidity
    00:00 -2°C° 0 mm 6 mps 735 mmHg 82%
    01:00 -1°C° 0 mm 5 mps 737 mmHg 83%
    02:00 -1°C° 0 mm 5 mps 738 mmHg 85%
    03:00 -1°C° 0 mm 4 mps 739 mmHg 86%
    04:00 -1°C° 0 mm 4 mps 739 mmHg 86%
    05:00 0°C° 0 mm 3 mps 740 mmHg 87%
    06:00 -1°C° 0 mm 3 mps 741 mmHg 87%
    07:00 -1°C° 0 mm 3 mps 742 mmHg 87%
    08:00 -1°C° 0 mm 3 mps 743 mmHg 88%
    09:00 -1°C° 0 mm 3 mps 743 mmHg 85%
    10:00 0°C° 0 mm 3 mps 744 mmHg 83%
    11:00 0°C° 0 mm 3 mps 745 mmHg 81%
    12:00 0°C° 0 mm 3 mps 746 mmHg 81%
    13:00 0°C° 0 mm 3 mps 746 mmHg 80%
    14:00 +1°C° 0 mm 3 mps 747 mmHg 80%
    15:00 +1°C° 0 mm 2 mps 747 mmHg 81%
    16:00 +1°C° 0 mm 2 mps 748 mmHg 82%
    17:00 +1°C° 0 mm 2 mps 748 mmHg 83%
    18:00 -1°C° 0 mm 2 mps 749 mmHg 84%
    19:00 +1°C° 0 mm 1 mps 749 mmHg 86%
    20:00 0°C° 0 mm 1 mps 750 mmHg 87%
    21:00 0°C° 0 mm 1 mps 750 mmHg 88%
    22:00 0°C° 0 mm 1 mps 751 mmHg 89%
    23:00 0°C° 0 mm 1 mps 751 mmHg 90%

    29 October, Monday

    Time Temperature Precipitation Wind Pressure Humidity
    00:00 0°C° 0 mm 1 mps 751 mmHg 90%
    01:00 0°C° 0 mm 1 mps 751 mmHg 89%
    02:00 -1°C° 0 mm 0 mps 752 mmHg 89%
    03:00 -1°C° 0 mm 0 mps 752 mmHg 88%
    04:00 -1°C° 0 mm 0 mps 752 mmHg 88%
    05:00 -1°C° 0 mm 0 mps 752 mmHg 87%
    06:00 -1°C° 0 mm 0 mps 752 mmHg 86%
    07:00 +1°C° 0 mm 1 mps 752 mmHg 84%
    08:00 +1°C° 0 mm 1 mps 752 mmHg 83%
    09:00 +1°C° 0 mm 1 mps 752 mmHg 80%
    10:00 +2°C° 0 mm 1 mps 752 mmHg 77%
    11:00 +1°C° 0 mm 2 mps 752 mmHg 74%
    12:00 +1°C° 0.1 mm 2 mps 752 mmHg 75%
    13:00 +1°C° 0.1 mm 2 mps 752 mmHg 76%
    14:00 +1°C° 0.1 mm 2 mps 752 mmHg 77%
    15:00 0°C° 0.3 mm 3 mps 751 mmHg 81%
    16:00 -1°C° 0.3 mm 3 mps 751 mmHg 85%
    17:00 -1°C° 0.3 mm 3 mps 751 mmHg 89%
    18:00 -2°C° 0.6 mm 4 mps 751 mmHg 89%
    19:00 -2°C° 0.6 mm 4 mps 751 mmHg 90%
    20:00 -2°C° 0.6 mm 5 mps 750 mmHg 91%
    21:00 -2°C° 0.7 mm 5 mps 750 mmHg 90%
    22:00 -2°C° 0.7 mm 5 mps 750 mmHg 90%
    23:00 -3°C° 0.7 mm 6 mps 750 mmHg 90%

    30 October, Tuesday

    Time Temperature Precipitation Wind Pressure Humidity
    00:00 -3°C° 0.9 mm 6 mps 750 mmHg 90%
    01:00 -4°C° 0.9 mm 6 mps 749 mmHg 90%
    02:00 -4°C° 0.9 mm 7 mps 749 mmHg 90%
    03:00 -4°C° 1 mm 7 mps 749 mmHg 90%
    04:00 -3°C° 1 mm 7 mps 749 mmHg 90%
    05:00 -3°C° 1 mm 7 mps 749 mmHg 90%
    06:00 -3°C° 0.7 mm 7 mps 749 mmHg 90%
    07:00 -3°C° 0.7 mm 6 mps 749 mmHg 90%
    08:00 -3°C° 0.7 mm 6 mps 749 mmHg 90%
    09:00 -3°C° 0.5 mm 6 mps 749 mmHg 89%
    10:00 -3°C° 0.5 mm 6 mps 750 mmHg 89%
    11:00 -3°C° 0.5 mm 6 mps 750 mmHg 89%
    12:00 -3°C° 0.2 mm 6 mps 750 mmHg 89%
    13:00 -3°C° 0.2 mm 6 mps 750 mmHg 89%
    14:00 -3°C° 0.2 mm 6 mps 751 mmHg 88%
    15:00 -3°C° 0 mm 6 mps 751 mmHg 88%
    16:00 -3°C° 0 mm 6 mps 751 mmHg 89%
    17:00 -3°C° 0 mm 6 mps 752 mmHg 89%
    18:00 -3°C° 0.1 mm 6 mps 752 mmHg 89%
    19:00 -3°C° 0.1 mm 6 mps 752 mmHg 89%
    20:00 -3°C° 0.1 mm 6 mps 752 mmHg 89%
    21:00 -2°C° 0 mm 5 mps 753 mmHg 89%
    22:00 -2°C° 0 mm 5 mps 753 mmHg 90%
    23:00 -2°C° 0 mm 5 mps 753 mmHg 90%
    Show more